Location: Bo?a Wola
(50.4192°N, 19.7966°E)
Time: 13:29:54
(UTC+00:00)

ALOS - Pass Details

Date: 15 June 2024
Orbit: 672 x 675 km, 98.0° (Epoch: 16 July)

Event Time Altitude Azimuth Distance (km) Brightness Sun altitude
Rises 01:27:13 0° 15° (NNE) 3,038 7.1 -7.7°
Reaches altitude 10° 01:29:29 10° 18° (NNE) 2,119 6.1 -7.4°
Maximum altitude 01:34:06 72° 103° (ESE) 711 2.5 -7.0°
Drops below altitude 10° 01:38:41 10° 188° (S) 2,100 4.3 -6.5°
Enters shadow 01:40:04 - 190° (S) 2,658 4.8 -6.4°
